Вернуться в каталог

BREEZE-M DEB

АктивенHEO
NORAD 37201·DEBRIS·🇷🇺 Russia

Запущен Mar 14, 2008 с Baikonur Cosmodrome

Loading…

Ближайшие Пролёты (ближайшие 24 часа)

TLE

СвежийSource: Space-Track

Эпоха: Sep 14, 2026, 09:49 UTC

1 37201U 08011F   26257.40959108 -.00000625  00000-0 -23853-1 0  9998
2 37201  49.2699  20.1732 6356947 215.0719  72.3037  3.06060140177933

Отслеживайте BREEZE-M DEB в реальном времени с AllMySat

Download on the App Store